CW3185 Weather Reports


time (UTC)temp
C
wind
direction
speed
KPH
gust
KPH
rain 1hr
cm
rain 24hr
cm
rain mn
cm
humidity
%
barometer
mb
20260508140504 15 66 1.6 11.3 0.00 0.03 0.00 55 1015.7
20260508133504 15 68 0.0 0.0 0.00 0.03 0.00 57 1015.7
20260508133005 15 101 0.0 19.3 0.00 0.03 0.00 56 1015.7
20260508130505 15 97 0.0 11.3 0.00 0.03 0.00 57 1015.5
20260508130004 15 81 4.8 25.7 0.00 0.03 0.00 58 1015.4
20260508123504 15 86 1.6 19.3 0.00 0.03 0.00 56 1015.4
20260508123004 15 101 3.2 25.7 0.00 0.03 0.00 58 1015.4
20260508120504 14 103 1.6 16.1 0.00 0.03 0.00 52 1015.3
20260508120004 14 90 1.6 19.3 0.00 0.03 0.00 55 1015.2
20260508113504 13 98 1.6 19.3 0.00 0.03 0.00 61 1015.1
20260508113004 13 76 3.2 19.3 0.00 0.03 0.00 63 1015.1
20260508110504 12 93 1.6 11.3 0.00 0.03 0.00 65 1015.1
20260508103504 13 79 1.6 14.5 0.00 0.03 0.00 66 1015.0
20260508103005 13 72 0.0 16.1 0.00 0.03 0.00 66 1015.0
20260508100004 12 77 0.0 16.1 0.00 0.03 0.00 70 1014.9
20260508093504 12 99 0.0 0.0 0.00 0.03 0.00 67 1014.9
20260508093005 12 77 0.0 19.3 0.00 0.03 0.00 70 1014.8
20260508090004 11 88 3.2 20.9 0.00 0.03 0.00 70 1014.7
20260508083504 10 93 0.0 0.0 0.00 0.03 0.00 75 1014.5
20260508083005 10 98 0.0 4.8 0.00 0.03 0.00 76 1014.5
20260508080504 10 105 0.0 11.3 0.00 0.03 0.00 77 1014.4
20260508080004 10 99 0.0 9.7 0.00 0.03 0.00 77 1014.4
20260508073504 10 96 0.0 0.0 0.00 0.03 0.00 78 1014.0
20260508073004 10 100 0.0 11.3 0.00 0.03 0.00 80 1013.9
20260508070504 10 110 0.0 0.0 0.00 0.03 0.00 81 1013.6
20260508063504 9 103 0.0 0.0 0.00 0.03 0.00 82 1013.3
20260508063004 9 134 0.0 0.0 0.00 0.03 0.00 82 1013.3
20260508060005 8 117 0.0 0.0 0.00 0.03 0.00 82 1012.9
20260508053504 8 126 0.0 0.0 0.00 0.03 0.00 82 1012.6
20260508053005 8 124 0.0 0.0 0.00 0.03 0.00 82 1012.5
20260508050004 7 132 0.0 0.0 0.00 0.03 0.00 83 1012.3
20260508043504 8 110 0.0 0.0 0.00 0.03 0.00 82 1012.2
20260508043004 8 117 0.0 0.0 0.00 0.03 0.00 82 1012.0
20260508040504 8 100 0.0 0.0 0.00 0.03 0.00 83 1011.9
20260508033504 8 85 0.0 0.0 0.00 0.03 0.00 82 1011.7
20260508033005 8 82 0.0 1.6 0.00 0.03 0.00 82 1011.7
20260508030504 8 81 0.0 0.0 0.00 0.03 0.00 81 1011.8
20260508023504 9 85 0.0 0.0 0.00 0.03 0.00 79 1011.7
20260508023004 9 87 0.0 1.6 0.00 0.03 0.00 79 1011.6
20260508020504 9 103 0.0 0.0 0.00 0.03 0.00 79 1011.4
20260508020004 9 79 0.0 1.6 0.00 0.03 0.00 79 1011.4
20260508013504 9 78 0.0 0.0 0.00 0.03 0.00 80 1011.7
20260508013005 8 76 0.0 0.0 0.00 0.03 0.00 80 1011.7
20260508010504 8 109 0.0 0.0 0.00 0.03 0.00 82 1011.7
20260508010004 8 112 0.0 0.0 0.00 0.03 0.00 82 1011.8
20260508003005 8 130 0.0 0.0 0.00 0.03 0.00 81 1011.7
20260507233503 9 76 0.0 1.6 0.00 0.03 0.00 79 1011.4
20260507233004 9 81 0.0 11.3 0.00 0.03 0.00 79 1011.3
20260507223503 10 98 1.6 11.3 0.00 0.03 0.03 79 1011.3
20260507223004 10 87 0.0 14.5 0.00 0.03 0.03 79 1011.3
20260507220504 10 70 0.0 3.2 0.00 0.03 0.03 78 1011.2
20260507220004 10 75 0.0 0.0 0.00 0.03 0.03 79 1011.3
20260507213004 10 98 0.0 1.6 0.00 0.03 0.03 78 1011.3
20260507210504 10 87 0.0 0.0 0.00 0.03 0.03 77 1011.3
20260507210005 10 76 0.0 11.3 0.00 0.03 0.03 77 1011.3
20260507203504 10 100 0.0 0.0 0.00 0.03 0.03 77 1011.3
20260507203005 10 77 0.0 1.6 0.00 0.03 0.03 77 1011.3
20260507200504 10 100 0.0 0.0 0.00 0.03 0.03 78 1011.1
20260507200004 10 115 0.0 0.0 0.00 0.03 0.03 78 1011.1
20260507193504 11 175 0.0 0.0 0.00 0.03 0.03 79 1010.9
20260507193005 11 175 0.0 0.0 0.00 0.03 0.03 78 1010.8
20260507190504 11 124 0.0 0.0 0.00 0.03 0.03 77 1010.8
20260507190005 11 125 0.0 0.0 0.00 0.03 0.03 78 1010.8
20260507183504 11 161 0.0 0.0 0.00 0.03 0.03 78 1010.8
20260507183004 11 161 0.0 0.0 0.00 0.03 0.03 78 1010.8
20260507180504 11 132 0.0 0.0 0.00 0.03 0.03 78 1010.8
20260507180005 11 71 0.0 0.0 0.00 0.03 0.03 78 1010.7
20260507173504 12 117 0.0 0.0 0.00 0.03 0.03 77 1010.6
20260507170504 10 118 0.0 0.0 0.00 0.03 0.03 81 1010.7
20260507170004 10 105 0.0 1.6 0.00 0.03 0.03 81 1010.8